TimeAKDT,TemperatureF,Dew PointF,Humidity,Sea Level PressureIn,VisibilityMPH,Wind Direction,Wind SpeedMPH,Gust SpeedMPH,PrecipitationIn,Events,Conditions,WindDirDegrees,DateUTC
12:16 AM,55.4,51.8,88,29.60,10.0,NE,5.8,-,N/A,,Mostly Cloudy,50,2013-08-17 08:16:00
12:36 AM,53.6,51.8,94,29.60,10.0,NE,3.5,-,N/A,,Mostly Cloudy,50,2013-08-17 08:36:00
12:56 AM,53.6,51.8,94,29.60,10.0,ENE,3.5,-,N/A,,Mostly Cloudy,60,2013-08-17 08:56:00
1:16 AM,55.4,51.8,88,29.60,10.0,NE,4.6,-,N/A,,Overcast,50,2013-08-17 09:16:00
1:36 AM,55.4,51.8,88,29.60,10.0,Calm,Calm,-,N/A,,Overcast,0,2013-08-17 09:36:00
1:56 AM,55.4,51.8,88,29.59,10.0,NE,4.6,-,N/A,,Overcast,50,2013-08-17 09:56:00
2:16 AM,55.4,51.8,88,29.59,10.0,NE,4.6,-,N/A,,Overcast,50,2013-08-17 10:16:00
2:36 AM,55.4,51.8,88,29.59,10.0,ENE,5.8,-,N/A,,Overcast,60,2013-08-17 10:36:00
2:56 AM,55.4,51.8,88,29.59,10.0,ENE,4.6,-,N/A,,Overcast,60,2013-08-17 10:56:00
3:16 AM,55.4,51.8,88,29.58,10.0,ENE,5.8,-,N/A,,Overcast,60,2013-08-17 11:16:00
3:36 AM,55.4,51.8,88,29.58,10.0,ENE,5.8,-,N/A,,Overcast,60,2013-08-17 11:36:00
3:56 AM,55.4,51.8,88,29.58,10.0,ENE,4.6,-,N/A,,Overcast,60,2013-08-17 11:56:00
4:16 AM,55.4,51.8,88,29.57,10.0,NE,6.9,-,N/A,,Overcast,50,2013-08-17 12:16:00
4:36 AM,55.4,51.8,88,29.57,10.0,ENE,8.1,-,N/A,,Overcast,60,2013-08-17 12:36:00
4:56 AM,55.4,51.8,88,29.57,10.0,ENE,8.1,-,N/A,,Overcast,60,2013-08-17 12:56:00
5:16 AM,55.4,51.8,88,29.56,10.0,ENE,9.2,-,N/A,,Overcast,60,2013-08-17 13:16:00
5:36 AM,55.4,51.8,88,29.56,10.0,ENE,8.1,-,N/A,,Mostly Cloudy,60,2013-08-17 13:36:00
5:56 AM,55.4,51.8,88,29.56,10.0,ENE,5.8,-,N/A,,Mostly Cloudy,60,2013-08-17 13:56:00
6:16 AM,55.4,51.8,88,29.56,10.0,NE,9.2,-,N/A,,Overcast,50,2013-08-17 14:16:00
6:36 AM,55.4,51.8,88,29.56,10.0,NE,5.8,-,N/A,,Overcast,50,2013-08-17 14:36:00
6:56 AM,55.4,51.8,88,29.56,10.0,NE,8.1,-,N/A,,Overcast,50,2013-08-17 14:56:00
7:16 AM,55.4,51.8,88,29.56,10.0,NE,4.6,-,N/A,,Overcast,50,2013-08-17 15:16:00
7:36 AM,55.4,51.8,88,29.56,10.0,NE,5.8,-,N/A,,Overcast,50,2013-08-17 15:36:00
7:56 AM,55.4,51.8,88,29.56,10.0,NE,6.9,-,N/A,,Overcast,50,2013-08-17 15:56:00
8:16 AM,55.4,51.8,88,29.56,10.0,NE,8.1,-,N/A,,Overcast,50,2013-08-17 16:16:00
8:36 AM,55.4,51.8,88,29.56,10.0,NE,6.9,-,N/A,,Overcast,50,2013-08-17 16:36:00
8:56 AM,55.4,51.8,88,29.56,10.0,ENE,6.9,-,N/A,,Overcast,60,2013-08-17 16:56:00
9:16 AM,55.4,51.8,88,29.56,10.0,ENE,9.2,-,N/A,,Overcast,60,2013-08-17 17:16:00
9:36 AM,55.4,51.8,88,29.56,10.0,NE,5.8,-,N/A,,Overcast,50,2013-08-17 17:36:00
9:56 AM,55.4,51.8,88,29.56,10.0,NE,4.6,-,N/A,,Overcast,40,2013-08-17 17:56:00
10:16 AM,55.4,53.6,94,29.56,10.0,NE,8.1,-,N/A,,Overcast,50,2013-08-17 18:16:00
10:36 AM,55.4,51.8,88,29.56,10.0,NE,8.1,-,N/A,,Overcast,50,2013-08-17 18:36:00
10:56 AM,57.2,53.6,88,29.56,10.0,NE,6.9,-,N/A,,Mostly Cloudy,40,2013-08-17 18:56:00
11:16 AM,57.2,53.6,88,29.56,10.0,NE,8.1,-,N/A,,Overcast,50,2013-08-17 19:16:00
11:36 AM,57.2,53.6,88,29.56,10.0,NE,4.6,-,N/A,,Overcast,50,2013-08-17 19:36:00
11:56 AM,57.2,53.6,88,29.56,10.0,NE,4.6,-,N/A,,Overcast,40,2013-08-17 19:56:00
12:16 PM,57.2,53.6,88,29.56,10.0,NE,8.1,-,N/A,,Overcast,50,2013-08-17 20:16:00
12:36 PM,57.2,53.6,88,29.57,10.0,NE,4.6,-,N/A,,Overcast,50,2013-08-17 20:36:00
12:56 PM,57.2,53.6,88,29.57,10.0,NE,5.8,-,N/A,,Overcast,50,2013-08-17 20:56:00
1:16 PM,57.2,53.6,88,29.56,10.0,ENE,8.1,-,N/A,,Overcast,60,2013-08-17 21:16:00
1:36 PM,57.2,53.6,88,29.56,10.0,NE,8.1,-,N/A,,Overcast,50,2013-08-17 21:36:00
1:56 PM,57.2,53.6,88,29.56,10.0,ENE,8.1,-,N/A,,Overcast,60,2013-08-17 21:56:00
2:16 PM,57.2,53.6,88,29.56,10.0,NE,5.8,-,N/A,,Overcast,50,2013-08-17 22:16:00
2:36 PM,57.2,53.6,88,29.56,10.0,NNE,6.9,-,N/A,,Overcast,30,2013-08-17 22:36:00
2:56 PM,57.2,53.6,88,29.55,10.0,NE,8.1,-,N/A,,Overcast,50,2013-08-17 22:56:00
3:16 PM,57.2,53.6,88,29.55,10.0,NNE,3.5,-,N/A,,Overcast,30,2013-08-17 23:16:00
3:36 PM,59.0,55.4,88,29.55,10.0,Calm,Calm,-,N/A,,Overcast,0,2013-08-17 23:36:00
3:56 PM,60.8,55.4,82,29.54,10.0,North,5.8,-,N/A,,Overcast,10,2013-08-17 23:56:00
4:16 PM,60.8,55.4,82,29.54,10.0,NNE,3.5,-,N/A,,Overcast,20,2013-08-18 00:16:00
4:36 PM,60.8,53.6,77,29.53,10.0,NNE,4.6,-,N/A,,Mostly Cloudy,30,2013-08-18 00:36:00
4:56 PM,60.8,53.6,77,29.53,10.0,NNE,4.6,-,N/A,,Mostly Cloudy,30,2013-08-18 00:56:00
5:16 PM,62.6,55.4,77,29.52,10.0,Calm,Calm,-,N/A,,Mostly Cloudy,0,2013-08-18 01:16:00
5:36 PM,62.6,55.4,77,29.52,10.0,Calm,Calm,-,N/A,,Mostly Cloudy,0,2013-08-18 01:36:00
5:56 PM,64.4,55.4,73,29.51,10.0,NNE,3.5,-,N/A,,Mostly Cloudy,20,2013-08-18 01:56:00
6:16 PM,64.4,55.4,73,29.51,10.0,North,4.6,-,N/A,,Overcast,10,2013-08-18 02:16:00
6:36 PM,66.2,55.4,68,29.51,10.0,NNE,5.8,-,N/A,,Scattered Clouds,30,2013-08-18 02:36:00
6:56 PM,66.2,53.6,64,29.50,10.0,NNW,6.9,-,N/A,,Clear,340,2013-08-18 02:56:00
7:16 PM,64.4,53.6,68,29.50,10.0,NNW,6.9,-,N/A,,Partly Cloudy,340,2013-08-18 03:16:00
7:36 PM,64.4,51.8,64,29.50,10.0,North,4.6,-,N/A,,Scattered Clouds,350,2013-08-18 03:36:00
7:56 PM,62.6,51.8,68,29.49,10.0,NNW,3.5,-,N/A,,Partly Cloudy,330,2013-08-18 03:56:00
8:16 PM,62.6,51.8,68,29.49,10.0,North,3.5,-,N/A,,Clear,350,2013-08-18 04:16:00
8:36 PM,62.6,53.6,72,29.49,10.0,Calm,Calm,-,N/A,,Clear,0,2013-08-18 04:36:00
8:56 PM,62.6,53.6,72,29.49,10.0,Calm,Calm,-,N/A,,Clear,0,2013-08-18 04:56:00
9:16 PM,62.6,53.6,72,29.49,10.0,Calm,Calm,-,N/A,,Clear,0,2013-08-18 05:16:00
9:36 PM,62.6,53.6,72,29.49,10.0,West,3.5,-,N/A,,Clear,270,2013-08-18 05:36:00
9:56 PM,62.6,53.6,72,29.49,10.0,Calm,Calm,-,N/A,,Partly Cloudy,0,2013-08-18 05:56:00
10:16 PM,60.8,53.6,77,29.49,10.0,Calm,Calm,-,N/A,,Mostly Cloudy,0,2013-08-18 06:16:00
10:36 PM,59.0,53.6,82,29.49,10.0,Calm,Calm,-,N/A,,Overcast,0,2013-08-18 06:36:00
10:56 PM,59.0,53.6,82,29.49,10.0,Calm,Calm,-,N/A,,Overcast,0,2013-08-18 06:56:00
11:16 PM,57.2,55.4,94,29.49,10.0,Calm,Calm,-,N/A,,Overcast,0,2013-08-18 07:16:00
11:36 PM,60.8,51.8,72,29.49,10.0,ENE,4.6,-,N/A,,Overcast,70,2013-08-18 07:36:00
11:56 PM,57.2,51.8,82,29.49,10.0,East,4.6,-,N/A,,Overcast,100,2013-08-18 07:56:00